www.pogodaiklimat.ru

Погода и климат >> Архив погоды >> Россия >> Якутия >> Чернышевский


ПОГОДА в Чернышевском

  • Прогноз погоды в Чернышевском
  • Монитор погоды в Чернышевском

АРХИВ ПОГОДЫ в Чернышевском

Время (UTC), дата Ветер
(напр.,м/с)
 
Видим.   Явления Облачность Т
(С)
Тd
(С)
f
(%)
Тe
(С)
Тes
(С)
Комфортность P
(гПа)
Po
(гПа)
Тmin
(С)
Tmax
(С)
R
(мм)
R24
(мм)
S
(см)
06 12.02 ЮЗ 7-10
{10}
50 км позёмок 10/0
[As trans]
-22.3 -24.8 80 -35 -35 опасность
обморожения
1026.8 969.8
09 12.02 ЮЗ 6
{10}
50 км позёмок 10/0
[As trans]
-21.7 -24.2 80 -33 -33 опасность
обморожения
1025.7 968.8
12 12.02 ЮЗ 7-10
{11}
50 км позёмок 10/0
[As trans]
-20.4 -23.7 75 -32 -32 опасность
обморожения
1024.1 967.5 -20.4
15 12.02 ЮЗ 7-10
{12}
50 км позёмок 10/0
[As trans]
-20.2 -22.8 80 -32 -32 опасность
обморожения
1022.3 966.0
18 12.02 З 6-11
{13}
50 км позёмок 4/0
[Ac trans Ci fib]
-21.3 -23.8 80 -33 -33 опасность
обморожения
1021.6 965.0
21 12.02 ЮЗ 7-11
{11}
50 км позёмок 10/0
[Ac trans Ci fib]
-22.4 -24.9 80 -35 -35 опасность
обморожения
1020.6 963.8
00 13.02 ЮЗ 8-11
{12}
50 км позёмок 10/0
[Ac trans Ci fib]
-23.4 -25.9 80 -37 -37 опасность
обморожения
1019.8 962.8 -23.5 75
03 13.02 ЮЗ 7-11
{13}
50 км позёмок 10/0
[Cs]
-22.9 -25.4 80 -35 -35 опасность
обморожения
1018.8 962.0 -23.7
06 13.02 ЮЗ 7-10
{12}
50 км позёмок 10/0
[Cs]
-21.2 -24.4 75 -33 -33 опасность
обморожения
1017.3 961.0
09 13.02 ЮЗ 6
{12}
50 км позёмок 10/0
[Ac As Cs]
-20.5 -23.0 80 -32 -32 опасность
обморожения
1017.4 961.2
12 13.02 З 6-10
{13}
10 км слаб. снег {метель} 10/0
[Ac As]
-19.7 -22.3 80 -31 -31 опасность
обморожения
1018.3 962.3 -19.7 0.3
15 13.02 ЮЗ 4
{10}
50 км позёмок {снег} 10/0
[Ac trans Cs]
-19.8 -22.4 80 -29 -29 1018.9 962.8
18 13.02 ЮЗ 5 10 км слаб. снег {метель} 10/0
[Ac As]
-19.5 -22.1 80 -29 -29 1018.7 962.6
21 13.02 ЮЗ 5
{10}
4000 м снег {метель} 10/0
[Ac As]
-18.8 -21.4 80 -29 -29 1018.5 962.6
00 14.02 ЮЗ 5 50 км позёмок {снег} 8/0
[Ac trans Ci fib]
-19.3 -21.9 80 -29 -29 1019.8 963.8 -20.1 0.7 76
03 14.02 З 5 50 км позёмок 10/0
[Ci fib]
-18.2 -20.8 80 -28 -27 1020.0 964.2
06 14.02 З 7-10
{10}
50 км позёмок 10/0
[Ac trans Ci fib]
-16.5 -19.1 80 -27 -27 1019.7 964.2
09 14.02 ЮЗ 7-10
{12}
50 км позёмок 10/0
[Ac As]
-15.6 -18.3 80 -26 -26 1019.5 964.3
12 14.02 ЮЗ 7-11
{13}
50 км позёмок 10/3 600 м
[Sc Ac As Cs]
-15.6 -18.3 80 -26 -26 1019.5 964.3 -15.2
15 14.02 ЮЗ 8-13
{13}
10 км слаб. снег {метель} 10/3 600 м
[Sc Ac As]
-14.4 -17.1 80 -25 -25 1018.1 963.2
18 14.02 ЮЗ 8-13
{13}
10 км слаб. снег {метель} 10/3 600 м
[Sc Ac As]
-15.8 -18.5 80 -27 -27 1016.2 961.1
21 14.02 З 9-16
{18}
10 км слаб. снег {метель} 10/1 600 м
[Sc As op]
-17.4 -20.0 80 -30 -30 1015.7 960.3
00 15.02 ЮЗ 8-12
{18}
10 км слаб. снег {метель} 10/3 600 м
[Sc Ac As]
-17.8 -20.4 80 -30 -30 1014.8 959.4 -17.8 0.2 74
03 15.02 ЮЗ 9-13
{14}
10 км слаб. снег {метель} 10/3 600 м
[Sc Ac As]
-16.5 -18.4 85 -28 -28 1012.6 957.5
06 15.02 ЮЗ 9-15
{15}
10 км слаб. снег {метель} 10/4 600 м
[Sc Ac As]
-14.7 -17.4 80 -26 -26 1009.8 955.5
09 15.02 ЮЗ 8
{15}
10 км слаб. снег {метель} 10/3 600 м
[Sc Ac As]
-13.2 -15.2 85 -24 -24 1008.5 954.4
12 15.02 ЮЗ 9-15
{16}
4000 м снег {метель} 10/3 600 м
[Sc Ac As]
-11.8 -13.8 85 -22 -22 1007.0 953.2 -11.8 0.6
15 15.02 З 11-17
{18}
4000 м снег {метель} 10/4 600 м
[Sc Ac As]
-11.0 -13.0 85 -22 -22 1005.2 951.6
18 15.02 ЮЗ 10-15
{17}
4000 м снег {метель} 10/5 600 м
[Sc Ac As]
-10.2 -12.2 85 -21 -21 1005.2 951.8
21 15.02 ЮЗ 9-15
{15}
4000 м снег {метель} 10/5
[Sc Ac As]
-9.6 -9.9 98 -20 -20 1006.4 953.0
00 16.02 З 6
{15}
10 км слаб. снег {метель} 10/8
[Sc As op]
-9.8 -11.5 87 -18 -18 1006.9 953.5 -11.8 0.9 73
03 16.02 З 6-10
{13}
10 км слаб. снег {метель} 10/5 600 м
[Sc As op]
-9.5 -11.1 88 -18 -18 1008.3 954.9
06 16.02 З 6-12
{12}
10 км позёмок {ливн. осадки, снег} 10/4 300 м
[Cb cap As op]
-9.0 -11.9 79 -17 -17 1008.5 955.1
09 16.02 З 6
{12}
4000 м ливневой снег {метель} 10/10 300 м
[Cb cap]
-9.4 -11.0 88 -18 -18 1009.2 955.8
12 16.02 СЗ 3
{10}
50 км позёмок {ливн. осадки} 10/0
[Ac As Ci fib]
-10.7 -13.5 80 -17 -17 1011.7 957.9 -8.9 0.6
15 16.02 З 3 50 км 8/0
[Ac trans Ci fib]
-13.4 -16.1 80 -20 -20 1013.6 959.2
18 16.02 З 1 50 км 8/0
[Ac trans Ci fib]
-14.5 -16.5 85 -17 -17 1014.1 959.3
21 16.02 ЮВ 2 50 км 10/0
[Ac trans Ci fib]
-14.6 -16.6 85 -20 -20 1012.8 958.1
00 17.02 ЮВ 3 4000 м слаб. снег [диам. изморози 13 мм] 10/5 600 м
[Sc As op]
-15.8 -17.7 85 -23 -23 1011.4 956.5 -15.9 0.0 75
03 17.02 ЮВ 3 4000 м снег 10/0 600 м
[As op]
-15.7 -17.6 85 -22 -22 1008.2 953.5 -16.8
06 17.02 ЮВ 4 2000 м снег {метель} 10/0
[As op]
-12.6 -14.6 85 -20 -20 1003.8 950.0
09 17.02 ЮВ 2 4000 м снег {метель} 10/0
[As op]
-10.8 -12.8 85 -15 -15 1001.6 948.3
12 17.02 Ю 2 4000 м снег {метель} 10/0 600 м
[As op]
-10.4 -12.4 85 -15 -15 1000.4 947.3 -10.4 3
15 17.02 З 3 4000 м снег {метель} 10/0
[As op]
-8.8 -10.3 89 -15 -15 1000.4 947.6
18 17.02 З 3 10 км слаб. снег 10/0
[As op]
-10.6 -12.6 85 -17 -17 1002.8 949.4
21 17.02 З 3 50 км {снег} 3/0
[Ci fib]
-14.4 -16.4 85 -21 -21 1005.6 951.4
00 18.02 З 3 50 км {снег} [диам. изморози 5 мм] 4/0
[Ac trans]
-16.6 -18.5 85 -24 -24 1008.0 953.1 -16.6 0.9 80
03 18.02 ЮЗ 4 50 км 3/1 600 м
[Sc Ac trans]
-16.0 -18.7 80 -24 -23 1009.6 954.7 -17.5
06 18.02 ЮЗ 4 50 км 10/1 600 м
[Sc Cs]
-15.2 -17.9 80 -23 -22 1010.2 955.5
09 18.02 ЮЗ 4 50 км 10/0
[Ac trans Ci fib]
-15.6 -18.3 80 -24 -24 1010.5 955.7
12 18.02 ЮЗ 5 50 км 10/0
[Cc]
-15.4 -18.1 80 -24 -24 1010.0 955.2 -14.7
15 18.02 Ю 3 50 км 10/0
[Cs]
-16.1 -18.0 85 -23 -23 1009.0 954.2
18 18.02 ЮВ 2 4000 м снег 10/0
[As op]
-15.1 -17.0 85 -20 -20 1006.7 952.3
21 18.02 СВ 1 4000 м снег 10/0
[As op]
-16.9 -19.5 80 -20 -20 1005.5 950.7
00 19.02 СВ 1 4000 м снег 10/0
[As op]
-16.7 -18.6 85 -19 -19 1004.7 950.1 -17.3 2 80
03 19.02 штиль 0 10 км слаб. снег 10/0
[As op]
-15.0 -17.7 80 -15 -15 1005.3 950.9

 

Местоположение метеостанции Чернышевский (Якутия, Россия): широта 63.03 долгота 112.40 высота над уровнем моря 422 м.

В архиве по умолчанию представлена погода в Чернышевском за последнюю неделю. Архивные данные за месяц целиком и за предыдущие месяцы, начиная с января 2011 года, Вы можете получить, выбрав интересующий диапазон дат из раскрывающегося списка и нажав кнопку "Ввод!".


*Определитесь, кто Вы:
робот инопланетянин человек

Внимание! Время в таблицах - всемирное. Для получения местного времени необходимо прибавить поправку, которая равна 9 ч.

Смотрите также архив погоды в соседних городах и на ближайших метеорологических станциях:

Погода в Туой-Хае (Якутия, Россия) (83 км)
Погода в Мирном (Якутия, Россия) (90 км)
Погода в Хабардино (Якутия, Россия) (175 км)
Погода в Дорожном (Якутия, Россия) (194 км)
Погода в Крестяхе (Якутия, Россия) (207 км)
Погода в Чумпуруке (Якутия, Россия) (259 км)
Погода в Сунтаре (Якутия, Россия) (283 км)
Погода в Ленске (Якутия, Россия) (286 км)
Погода в Нюрбе (Якутия, Россия) (298 км)
Погода в Ербогачене (Иркутская область, Россия) (301 км)

Пояснения к столбцам:

Ветер - указаны скорость ветра в м/с - средняя за 10 мин, порывы в срок и между сроками (в фигурных скобках) и направление, откуда дует ветер: С - северный, СВ - северо-восточный, В - восточный, ЮВ - юго-восточный, Ю - южный, ЮЗ - юго-западный, З - западный, СЗ - северо-западный.
Видимость - горизонтальная дальность видимости в метрах или километрах. При видимости от 1 до 10 км при отсутствии осадков обычно наблюдается дымка, при ухудшении видимости до 1 км и менее - туман. В сухую погоду видимость может ухудшаться дымом, пылью или мглою.
Явления - указаны атмосферные явления, наблюдавшиеся в срок или в последний час перед сроком; фигурными скобками обозначены явления, наблюдавшиеся между сроками (за 1-3 часа до срока); квадратными скобками обозначены град или гололедные отложения с указанием их диаметра в мм.
Облачность - указаны через наклонную черту общая и нижняя облачность в баллах и высота нижней границы облаков в метрах; квадратными скобками обозначены формы облаков: Ci - перистые, Cs - перисто-слоистые, Cc - перисто-кучевые, Ac - высококучевые, As - высокослоистые, Sc - слоисто-кучевые, Ns - слоисто-дождевые, Cu - кучевые, Cb - кучево-дождевые. Подробнее классификацию облаков см. в Атласе облаков (PDF).
T - Температура воздуха - температура, измеренная на высоте 2 м над землей.
Td - Температура точки росы - температура, при понижении до которой содержащийся в воздухе водяной пар достигнет насыщения.
f - Относительная влажность воздуха - влажноcть воздуха, измеренная на высоте 2 м над землей.
Te - Эффективная температура - температура, которую ощущает одетый по сезону человек в тени. Характеристика душности погоды. При расчете учитывается влияние влажности воздуха и скорости ветра на теплоощущения человека.
Tes - Эффективная температура на солнце - температура, которую ощущает человек, с поправкой на солнечный нагрев. Характеристика знойности погоды. Зависит от высоты солнца над горизонтом, облачности и скорости ветра. Ночью, в пасмурную погоду, а также при ветре 12 м/с и более поправка равна нулю.
P - Атмосферное давление - приведенное к уровню моря атмосферное давление.
Po - Атмосферное давление - измеренное на уровне метеостанции атмосферное давление.
Tmin - Минимальная температура - минимум температуры воздуха на высоте 2 м над землей.
Tmax - Максимальная температура - максимум температуры воздуха на высоте 2 м над землей.
R - Количество осадков - Количество выпавших осадков за период времени, мм. При наведении курсора мыши на число - период времени, за который выпало указанное количество осадков.
R24 - Количество осадков - Количество выпавших осадков за 24 часа, мм.
S - Снежный покров - Высота снежного покрова, см. При наведении курсора мыши на число - состояние снежного покрова и степень покрытия местности в баллах.